Location: Newark
(47.5008°N, 9.7480°E)
Time: 05:35:18
(UTC+00:00)

ISS - Pass Details

Date: 28 July 2019
Orbit: 410 x 421 km, 51.6° (Epoch: 22 August)

Event Time Altitude Azimuth Distance (km) Brightness Sun altitude
Rises 22:14:57 0° 291° (WNW) 2,371 0.6 -21.6°
Reaches altitude 10° 22:17:11 10° 281° (W) 1,501 -0.6 -21.8°
Enters shadow 22:18:37 20° 265° (W) 1,019 -1.7 -21.8°
